200 serials | archpr 4.53 registration code titled archpr 4.53 registration code serial number, key, crack, keygen they say archpr 4.53 registration code serial numbers. convert archpr 4.53 registration code trail version to full software

Date Name Success Rate
2011-09-08 10:56:11 FontLook v3.1 Registration Code 72%
2011-09-08 11:42:43 Nic O'Matic 1.6 Registration Code 69%
2011-09-08 11:42:43 Nic O'Matic v1.6 Registration Code 48%
2011-09-08 12:54:14 TimeSlips 10.5 enterprise - with registration code! 54%
2012-12-13 05:12:00 Registration Code For PDFZilla Giveaway 42%
2012-12-13 05:12:00 Registration code:-826510-16101-266644 59%
2009-10-22 23:27:21 Archpr 3.01.7 47%
2009-10-22 23:27:21 ARCHPR V4.11 54%
2012-12-12 02:09:32 ArcHPR 4.53 68%
2009-10-22 23:47:41 ElcomSoft Advanced Archive Password Recovery ARCHPR 3.01.7 57%
2011-09-08 10:25:56 Cheyenne Bitware V4.0 Registration Number 53%
2009-10-17 06:22:15 ElcomSoft Advanced Archive Password Recovery ARCHPR V3.01.7-POPUP 42%
2011-09-08 11:32:07 Microstation v5.xx.xx & 95 FULL REGISTRATION 73%
2009-10-22 23:49:52 Serial Code Ultimate 66%
2011-09-08 10:42:09 DAS Registration 1.5.2 64%
2011-09-08 10:42:09 DAS Registration For CW5 45%
2011-09-08 10:42:09 DAS Registration v1.5.2 0%
2009-10-17 06:27:02 Lazarus Registration DLL V1.0 56%
2009-10-22 23:48:48 MemoriesonTV Registration 0%
2009-10-22 23:49:42 Registration Wizard 73%
2011-09-08 10:06:47 AnetHelpTool v4.02 Registration 52%
2011-09-08 10:22:13 ByeLines Registration 78%
2011-09-08 10:57:42 Ftgate Registration 72%
2011-09-08 11:15:16 Infodex v2.10 Registration 45%
2011-09-08 11:25:08 Lazarus Registration DLL v1.0 47%
2011-09-08 11:27:46 Mac Opener v3.0 Registration 57%
2011-09-08 11:32:59 mIRC v4.5+ Registration 35%
2011-09-08 11:32:59 mIRC v4.52 Registration 51%
2011-09-08 12:37:02 Quant v2.0 Registration 52%
2011-09-08 12:41:14 Registration Suite 1.0 56%
2011-09-08 12:41:14 Registration Suite v1.0 60%
2011-09-08 12:41:14 Registration Wizard Pro 5.01 46%
2011-09-08 12:41:14 Registration Wizard Pro v5.01 60%
2011-09-08 13:18:59 WinHacker 95 v2.02 Registration 57%
2012-12-13 05:12:00 Registration Key : 526EFEF086E09600449E667EA2DAE8E2E6D642BC 65%
2009-10-22 23:49:02 Norton SystemWorks 2005 Premier (Serial And Activation Code) 76%
2009-10-22 23:27:21 Ardamax Keylogger 2.9 Registration 56%
2009-10-22 23:48:49 Microsoft Registration Hacker - 39%
2009-10-22 23:49:57 SoudForge ALL (No Registration Requiered) 0%
2009-10-22 23:50:26 Valve's Registration Armor Key-Gen 60%
2011-09-08 10:21:42 Browserola v1.01 Temp. Registration 0%
2011-09-08 11:31:51 Microsoft Registration Hacker 0%
2011-09-08 11:31:51 Microsoft Registration Hacker - 0%
2011-09-08 11:31:51 Microsoft Registration HackerMSREGHACK 0%
2011-09-08 12:34:57 PolyTrans V1.2E Registration Activator CD-Key 73%
2011-09-08 12:34:57 PolyView v2.9b16 Registration 0%
2011-09-08 12:54:09 Time Registration (German) 1.10 0%
2011-09-08 12:59:30 Super Collapse Registration 83%
2011-09-08 13:23:15 Yipe! II for Windows Registration #154 0%
2012-12-13 08:49:53 Softwarenetz Time Registration v1.10 28%
2012-12-13 08:49:56 Softwarenetz Time Registration v1.14 0%
2012-12-13 15:34:10 Valve's Registration Armor Key-Gen 0%
2009-10-22 23:48:17 Internet Download Manager Registration 55%
2011-09-08 11:31:51 Microsoft Registration Hacker MSREGHACK 69%
2011-09-08 11:31:51 Microsoft Visual Basic 5 registration cd key 72%
2012-12-12 08:07:32 Download avast 5.0.667 Antivirus registration 52%
2012-12-13 05:12:00 Registration key for x-3gp-video-converter-38540 81%
2012-12-13 13:12:40 Total Image Converter Registration Key 56%
2012-12-12 19:41:21 Microsoft Visual Studio 2010&2012 Ultimate Serial Code Free 59%
2011-09-08 11:30:16 MediaBlaze 98 v1.01 Win95/NT User: delphic Registration 0%
2009-10-22 23:49:02 Norton Internet Security 2005 Registration Guide 0%
2011-09-08 09:58:40 Acoustica Mixcraft v1.10 Build 15 Registration Info by MaBi 60%
2009-10-22 23:49:59 Star Wars Galaxies Trail Key Code 0%
2011-09-08 10:24:16 CATIII.Software.Code.Signer.Pro Version: 1.2 0%
2012-12-12 19:40:26 Microsoft Visual Basic 2008 Express Edition Registration key 50%
2011-09-08 11:14:33 ImageLib Corporate Suite 6.0 D56 With Full SRC Code 0%
2011-09-08 11:14:33 ImageLib Corporate Suite v6.0 D56 With Full SRC Code 73%
2012-12-12 12:41:36 Full speed 3.3 pro boost unlock code 60%
2011-09-08 10:27:36 Code-Genie Version: 3.05.14 50%
2011-09-08 10:27:36 Code-Genie Version: 3.07.31 0%
2011-09-08 12:52:10 TeeChart Pro Full Source Code for Delphi CPPB Kylix 5.02 0%
2011-09-08 12:52:10 TeeChart Pro Full Source Code for Delphi CPPB Kylix v5.02 0%
2011-09-08 10:00:42 Adobe Photoshop v3.05 Danish Version Code 0%
2012-12-12 07:18:31 DDR-PenDrive Recovery(demo) 4.0.1.6+crack, serial, keygen, 79%
2009-10-17 06:20:07 CATIII Software Code Signer Pro V1.2 67%
2009-10-22 23:45:50 CATIII Software Code Signer Pro V1.2 0%
2009-10-22 23:48:50 Microsoft Windows XP Proff. SP1 En Version - Install Code 80%
2009-10-17 06:19:27 Bar Code Pro V6.02 59%
2009-10-17 06:20:25 Code Co-op V4.5c 54%
2009-10-17 06:20:25 Code VBA V2.0 46%
2009-10-17 06:20:25 CODE-VB V3.03 23%
2009-10-22 23:44:48 Bar Code 128 3.0 0%
2009-10-22 23:44:48 Bar Code 3 Of 9 2.7 0%
2009-10-22 23:44:48 Bar Code 3 Of 9 3.0b 0%
2009-10-22 23:44:48 Bar Code Pro V6.02 0%
2009-10-22 23:44:48 Bar Code Pro V6.11 0%
2009-10-22 23:45:53 Code Co-op 4.0h 27%
2009-10-22 23:45:53 Code Co-op 4.1 59%
2009-10-22 23:45:53 Code Co-op 4.1a 0%
2009-10-22 23:45:53 Code Co-op 4.2 0%
2011-09-08 10:18:52 Bar Code Pro UPC v1.0 mac 59%
2011-09-08 10:18:52 Bar Code 3 of 9 v3.0b 0%
2011-09-08 10:18:52 Bar Code Pro 6.02 57%
2011-09-08 10:18:52 Bar Code 3 of 9 v2.7 0%
2011-09-08 10:18:52 Bar Code 3 of 9 3.0b 0%
2011-09-08 10:18:48 Bar Code 128 v3.0 0%
2011-09-08 10:18:48 Bar Code 3 of 9 2.7 55%
2011-09-08 10:18:48 Bar Code 128 3.0 0%
2011-09-08 10:27:32 Code 55%
2011-09-08 10:27:32 Code co-op 3.1 0%
2011-09-08 10:27:32 Code Co-Op 3.3b 0%
2011-09-08 10:27:32 Code Co-op 4.0h 0%
2011-09-08 10:27:32 Code Co-op 4.1 60%
2011-09-08 10:27:32 Code Co-op 4.1a 0%
2011-09-08 10:27:32 Code Co-op 4.2 57%
2011-09-08 10:27:32 Code Co-op 4.5c 55%
2011-09-08 10:27:32 Code co-op v3.1 0%
2011-09-08 10:27:32 Code Co-Op v3.3b 61%
2011-09-08 10:27:32 Code Co-op v4.1 0%
2011-09-08 10:27:32 Code Co-op v4.2 0%
2011-09-08 10:27:32 Code Co-op v4.5c 40%
2011-09-08 10:27:36 Code VBA 2.0 0%
2011-09-08 10:27:36 Code Wiz 3.0 0%
2011-09-08 10:27:36 Code Wiz v3.0 0%
2011-09-08 10:27:36 CODE-VB 3.03 57%
2011-09-08 10:27:36 Code:law 0%
2011-09-08 10:46:43 EAN Bar Code 0%
2011-09-08 10:49:57 ESS Code 0%
2011-09-08 10:49:57 ESS Code v6.7 Win 0%
2011-09-08 10:49:57 ESS Code v7.7 and v7.8 53%
2011-09-08 10:49:57 ESS-Code 0%
2011-09-08 10:49:57 ESS-Code 7.x 0%
2011-09-08 10:49:57 ESS-Code v7.5 59%
2011-09-08 10:49:57 ESS-Code v7.x 0%
2011-09-08 10:49:57 ESS-CODE v7.x WIN 0%
2011-09-08 10:49:57 ESS-Code/32 v7.8 0%
2011-09-08 10:55:14 Fix It v1.0 Code 55%
2011-09-08 10:55:14 Fix-It v2.30 Reg Code 56%
2011-09-08 11:01:54 G-Code-It 3.0 0%
2011-09-08 11:01:54 G-Code-It v3.0 0%
2011-09-08 11:07:16 Hit-N-Run v1.4 Code 0%
2011-09-08 13:23:47 ZIP 95 v1.02 REG CODE 0%
2009-10-17 06:19:27 Bar Code Pro V6.11 MacOSX-ART 12%
2009-10-17 06:20:25 Code Visualizer V2.25 56%
2009-10-17 06:20:25 Code Visualizer V2.28 41%
2009-10-17 06:20:25 Code Visualizer V2.35 5%
2009-10-17 06:20:25 Code Visualizer V2.35 11%
2009-10-17 06:20:25 Code Visualizer V2.52 54%
2009-10-17 06:20:25 Code Visualizer V2.64 52%
2009-10-17 06:20:25 Code Visualizer V2.83 22%
2009-10-17 06:20:25 Code Visualizer V2.87 19%
2009-10-17 06:20:25 Code Visualizer V2.97 71%
2009-10-17 06:20:25 Code Visualizer V2.99 26%
2009-10-17 06:20:25 Code Visualizer V3.01 49%
2009-10-17 06:20:25 Code Visualizer V3.05 27%
2009-10-17 06:20:25 Code Visualizer V3.1 35%
2009-10-17 06:20:25 Code Visualizer V3.38 50%
2009-10-22 23:44:48 Bar Code Pro FileMaster V2.1 0%
2009-10-22 23:45:49 Camfrog Pro Code 75%
2009-10-22 23:45:53 Code Pro Evolution 6 62%
2009-10-22 23:45:53 Code Source 34%
2009-10-22 23:45:53 Code Vault 2.2 13%
2009-10-22 23:45:53 Code Visualizer V2.25 41%
2009-10-22 23:45:53 Code Visualizer V2.35 0%
2009-10-22 23:45:53 Code Visualizer V2.49 0%
2009-10-22 23:45:53 Code Visualizer V2.52 0%
2009-10-22 23:45:53 Code Visualizer V2.55 0%
2009-10-22 23:45:53 Code Visualizer V2.64 40%
2009-10-22 23:45:53 Code Visualizer V2.83 0%
2009-10-22 23:45:53 Code Visualizer V2.87 0%
2009-10-22 23:45:53 Code Visualizer V2.97 50%
2009-10-22 23:45:53 Code Visualizer V2.99 0%
2009-10-22 23:45:53 Code Visualizer V3.01 0%
2009-10-22 23:45:53 Code-Genie 3.04.28 8%
2009-10-22 23:45:53 Code-Genie 3.05.14 0%
2009-10-22 23:45:53 Code-Genie 3.05.19 0%
2009-10-22 23:45:53 Code-Genie 3.06.11 0%
2009-10-22 23:45:53 Code-Genie 3.10.06 0%
2009-10-22 23:45:53 Code-Genie 3.10.20 0%
2009-10-22 23:45:53 Code-Genie 3.10.28 0%
2009-10-22 23:45:53 Code-Genie 3.11.12 0%
2009-10-22 23:50:10 The Nightshift Code V1.0.0.76 0%
2009-10-22 23:50:57 Zero Code Designer V1.5 0%
2011-09-08 09:45:41 20/20 Pc-Install Pro v5.08 Code 80%
2011-09-08 09:45:43 20/20 softSENTRY v1.03 Code 0%
2011-09-08 10:02:19 Agent V1.01 32 bit Code 0%
2011-09-08 10:02:19 Agent v1.01 32-Bit Code 0%
2011-09-08 10:02:19 Agent v1.5 Code 0%
2011-09-08 10:12:14 Automate Pro V3.7E Code 0%
2011-09-08 10:20:44 Bomby v6.8 Code 1 28%
2011-09-08 10:23:45 Canvas v3.5 Code 16%
2011-09-08 10:24:49 CD-Spectrum Pro v3.2.327 Code 0%
2011-09-08 10:25:21 CGI Star Duo v1.04 Code 0%
2011-09-08 10:25:41 CheckIt v5.0 Code 0%
2011-09-08 10:27:32 Code Assist 1.1 40%
2011-09-08 10:27:32 Code Assist v1.1 69%
2011-09-08 10:27:32 Code Cache 3.01 0%
2011-09-08 10:27:32 Code Cache v3.01 0%
2011-09-08 10:27:32 Code Charge v2.0 0%
2011-09-08 10:27:32 Code Co-op v4.1 by REVENGE 0%
2011-09-08 10:27:32 Code Co-op v4.1a by REVENGE 0%
2011-09-08 10:27:32 Code Counter Pro v1.10 0%
2011-09-08 10:27:32 Code Database 2.2.3 0%
2011-09-08 10:27:32 Code Database v2.2.3 0%
2011-09-08 10:27:32 Code Digger 2.0+ 0%
2011-09-08 10:27:32 Code Digger 2.11 0%
2011-09-08 10:27:32 Code Digger v2.0+ 0%
2011-09-08 10:27:32 Code Digger v2.11 0%
2011-09-08 10:27:32 Code Genie v3.03.14 0%
2011-09-08 10:27:32 Code Jam Pte - Dvd Composer 1.0.5 58%